User: anonymous   Login
Location: Unspecified
(0.0000°N, 0.0000°E)
Time: 10:43:58
(UTC+02:00)
Language:

BREEZE-M DEB (TANK) - Orbit

View from above orbital plane
View from above orbital plane
View from above satellite
View from above satellite

Ground track
Ground track

The orbit data is extracted from the following two-line orbital elements,

1 33374U 08044B   17142.68361963 +.00000844 +00000-0 +24796-3 0  9990
2 33374 049.4539 301.5102 5445596 069.2693 339.4627 04.87027639152762
Epoch (UTC): 22 May 2017 16:24:24
Eccentricity: 0.5445596
inclination: 49.4539°
perigee height: 317 km
apogee height: 16329 km
right ascension of ascending node: 301.5102°
argument of perigee: 69.2693°
revolutions per day: 4.87027639
mean anomaly at epoch: 339.4627°
orbit number at epoch: 15276

The dashed part of the orbit path shows where the satellite is in the earth's shadow,  

DLR